GFSWCAN_prec_radar_198.txt.gz
Reflectivity
1 -20 -20 -20 1 8 -8 -20 -20 -20 7 -1 -16 -20 -20 -20 -20 19 -20 -8 21 29 14 -10 -20 -5 -3 8 11 -16 -20 1 27 4 -5 -20 -20 -20 -20 -20 -20 -20 -20 -20 -20 -20 -20 -12 -6 -20 -20 -20 -20 -20
-18 -7 4 1 -20 -20 -20 6 -20 -18 -20 -20 -20 -20 -20 -20 13 18 12 -19 19 21 23 -19 -18 -18 -4 13 7 5 -1 -19 32 34 30 16 -20 -20 -20 -20 -20 -20 -20 -20 -20 -20 -20 -20 -20 -19 -9 -20 -20 -20
-4 -14 -20 -20 4 3 -20 -20 -20 -20 8 8 10 11 10 -20 8 19 18 -18 18 17 -7 -15 -16 -20 -20 -20 -20 17 -20 0 -20 -2 38 29 25 -10 -8 -20 -20 -20 -20 -20 -20 -20 -20 -20 -20 -20 -17 8 -19 -20
-20 -20 -20 -20 -20 -20 -20 9 9 8 9 10 10 10 9 4 -20 16 19 -20 20 23 19 -9 -20 -20 -20 -20 -20 -20 -20 -20 -20 -9 21 15 12 10 -6 -16 4 -20 -20 -20 -20 -20 -20 -20 -18 -2 -20 -20 -20 -20
-3 -20 -20 -20 -20 -20 -20 -20 -20 -8 -20 -20 -20 4 7 4 11 19 18 -12 7 24 20 15 -19 -20 -9 -20 -18 -9 -7 -20 -20 8 4 6 -1 16 27 19 5 -20 -20 -20 -20 -20 -20 -20 -20 -19 -20 -20 -20 -20
-20 -20 -20 -20 -6 -19 -20 -2 6 7 13 15 8 5 4 3 18 23 12 -17 -20 -20 17 10 -9 -20 -20 -20 -20 23 21 19 22 -15 8 -19 -20 7 -6 18 21 -20 -20 -20 -20 -20 -20 -20 -20 -20 -20 -20 -20 -20
-20 -20 -20 -12 11 7 8 6 4 14 14 12 13 9 -11 15 21 22 10 -20 -20 4 21 17 22 9 -20 -20 -20 -20 -20 -20 -20 -20 -2 -13 -20 16 29 27 -10 -20 9 1 -20 -20 -20 -20 -20 -20 -20 -20 -20 -20
-20 -1 8 4 -0 7 3 15 8 10 7 3 1 13 15 13 -3 2 -20 -20 9 19 17 13 -13 -20 -20 -20 -18 -20 -9 4 -1 -20 -11 -20 -20 4 15 10 9 6 -20 -20 -20 -20 -20 -20 -20 -20 -20 -20 -20 -20
5 -6 4 8 7 5 3 2 -6 -13 0 13 16 16 4 -20 -12 -20 -20 -5 30 30 26 20 10 1 -20 -20 -2 26 -4 12 15 0 5 5 -5 4 -18 -8 -15 -20 -5 -20 -20 -20 -20 -17 -20 -20 -20 -20 -20 -20
-3 -20 -0 -8 -20 -4 8 16 14 17 16 18 -20 -20 -20 -20 -0 -20 -20 -20 -19 -16 4 -18 -20 -20 10 16 24 23 27 13 16 3 -13 8 14 -20 -20 -20 -20 -19 -20 18 2 -3 -7 -20 -7 10 -6 -19 -20 -20
-2 -15 0 -5 2 1 1 14 19 19 6 -20 -12 -20 -20 -20 7 11 11 7 11 16 10 -20 -13 7 24 23 21 23 16 20 18 -12 7 -6 -20 -20 -20 -20 -20 -20 6 15 5 -14 -4 -1 14 10 -4 -20 -20 -20
-17 3 5 -18 -7 3 5 17 21 8 4 13 21 1 -19 10 11 11 9 23 17 22 21 20 21 22 14 30 26 24 10 4 14 -19 5 -14 -20 -20 -20 -20 -20 -20 -20 -20 -7 -10 3 -4 3 -9 -20 -3 -6 -20
-14 1 -20 -20 -20 -18 17 20 -17 -3 20 -20 -20 -15 4 -19 -3 13 2 9 9 10 4 -10 -2 27 25 30 22 26 15 5 -20 5 -18 -20 6 16 -20 -20 -20 -20 -20 4 13 -2 -20 -8 -5 -20 -16 -18 -7 -11
-9 8 3 -18 -20 -19 20 -20 -19 14 -6 -20 3 -10 -8 -20 -7 -13 -5 -9 -10 -19 -6 -2 11 26 21 18 16 16 -3 -20 -14 -20 -20 -20 3 26 21 3 -5 -20 -16 -16 8 15 2 6 16 16 15 -10 -20 -20
13 11 13 -3 -15 16 -20 -18 -4 -20 -11 -5 -7 -12 -20 -20 -20 -20 -18 4 -11 7 -2 2 6 17 18 12 12 -7 -20 -20 -20 -20 -20 -20 -5 12 16 27 5 5 5 6 18 22 23 21 20 20 7 -6 0 7
2 8 -20 5 19 15 10 -14 -20 3 8 -10 -8 -15 -20 -16 -20 -20 -19 -20 3 9 -3 9 10 23 19 1 -17 -20 -11 -20 -5 -5 1 9 8 1 9 20 16 17 19 22 24 21 20 16 16 13 8 8 5 -13
16 4 -20 18 9 -0 -20 -20 -20 6 -17 3 -8 -19 6 -19 -20 -20 -20 1 9 17 8 18 19 18 12 -3 -20 -20 -18 -2 13 14 14 16 17 9 11 18 24 28 27 22 18 19 20 18 15 11 8 2 -5 -19
-6 -16 22 15 -20 -20 -20 -20 -15 -17 8 -11 -20 -20 -20 2 3 -18 -17 -12 13 15 20 15 7 10 2 -20 -18 -18 2 10 5 8 15 24 26 29 28 27 24 20 20 20 20 18 15 12 8 3 -5 -17 -20 -20
-4 -2 -17 -20 -20 -20 -20 -20 -10 11 -7 -20 -17 -13 -19 12 3 -20 -1 12 13 13 11 6 7 7 6 7 5 10 16 12 17 19 23 26 23 24 24 22 22 19 13 10 10 8 5 2 -3 -18 -20 -20 -20 -20
-20 -20 -20 -20 -20 -20 -20 -18 9 8 -10 -20 -17 -20 -18 14 12 7 6 13 9 11 5 -4 2 13 15 19 17 -0 11 20 20 19 23 23 22 20 17 15 14 10 5 -0 -4 -11 -18 -20 -20 -20 -20 -20 -20 -20
-20 -20 -20 -20 -20 -20 -20 -10 8 -5 -20 -20 -15 -2 7 5 4 1 9 12 7 -3 13 14 13 19 19 13 20 19 22 20 20 16 12 14 17 17 13 4 -3 -20 -20 -20 -20 -20 -20 -20 -20 -20 -20 -20 -20 -20
-20 -20 -20 -20 -20 -20 -20 -20 -20 -7 -20 -20 3 9 8 -5 -2 5 9 1 10 11 19 23 20 20 17 18 18 15 16 12 12 10 11 15 15 13 3 -14 -20 -20 -20 -20 -20 -20 -20 -20 -20 -20 -20 -20 -20 -20
-20 -20 -20 -20 -20 -20 -20 -20 -20 -20 -20 -12 3 2 8 4 -7 3 -10 3 13 18 15 8 11 2 -5 -6 -12 -9 -4 2 -2 -1 1 2 3 -3 -14 -20 -20 -20 -20 -20 -20 -20 -20 -20 -20 -20 -20 -20 -20 -20
-20 -20 -20 -20 -20 -20 -20 -20 -20 -20 -20 -18 -0 -4 4 -1 -18 -20 -19 0 17 18 7 13 -2 -0 9 8 3 3 2 -2 -12 -18 -18 -20 -20 -20 -20 -20 -20 -20 -20 -20 -20 -20 -20 -20 -20 -20 -20 -20 -20 -20
-20 -20 -20 -20 -20 -20 -20 -20 -20 -20 -20 -20 -20 -20 -20 -20 -19 -20 -20 -9 3 -6 9 3 -12 -7 -20 -20 -20 -20 -20 -20 -20 -20 -20 -20 -20 -20 -20 -20 -20 -20 -20 -20 -20 -20 -20 -20 -20 -20 -20 -20 -20 -20
-20 -20 -20 -20 -20 -20 -20 -20 -20 -20 -20 -20 -20 -20 -20 -20 -20 -20 -20 -20 -14 -9 -20 -20 -20 -20 -20 -20 -20 -20 -20 -20 -20 -20 -20 -20 -20 -20 -20 -20 -20 -20 -20 -20 -20 -20 -20 -20 -20 -20 -20 -20 -20 -20
-20 -20 -20 -20 -20 -20 -20 -20 -20 -20 -20 -20 -20 -20 -20 -20 -20 -20 -20 -20 -20 -7 -20 -20 -20 -20 -20 -20 -20 -20 -20 -20 -20 -20 -20 -20 -20 -20 -20 -20 -20 -20 -20 -20 -20 -20 -20 -20 -20 -20 -20 -20 -20 -20
-20 -20 -20 -20 -20 -20 -20 -20 -20 -20 -20 -20 -20 -20 -20 -20 -20 -20 -20 -20 -20 -20 -20 -20 -20 -20 -20 -20 -20 -20 -20 -20 -20 -20 -20 -20 -20 -20 -20 -20 -20 -14 -20 -20 -20 -20 -20 -20 -20 -20 -20 -20 -20 -20
-20 -20 -20 -20 -20 -20 -20 -20 -20 -20 -20 -20 -20 -20 -20 -20 -20 -20 -20 -20 -20 -20 -20 -20 -20 -20 -20 -20 -20 -20 -20 -20 -20 -20 -20 -20 -20 -20 -20 -20 -20 -20 -20 -20 -20 -6 -1 -13 -18 -19 -20 -20 -20 -20
-20 -20 -20 -20 -20 -20 -20 -20 -20 -20 -20 -20 -20 -20 -20 -20 -20 -20 -20 -20 -20 -20 -20 -20 -20 -20 -20 -20 -20 -20 -20 -20 -20 -20 -20 -20 -20 -20 -20 -20 -20 -20 -20 -20 -20 -20 -20 -20 -20 -20 -20 -20 -20 -20
-20 -20 -20 -20 -20 -20 -20 -20 -20 -20 -20 -20 -20 -20 -20 -20 -20 -20 -20 -20 -20 -20 -20 -20 -20 -20 -20 -20 -20 -20 -20 -20 -20 -20 -20 -20 -20 -20 -20 -20 -20 -20 -20 -20 -20 -20 -20 -20 -20 -20 -20 -20 -20 -20
-20 -20 -20 -20 -20 -20 -20 -20 -20 -20 -20 -20 -20 -20 -20 -20 -20 -20 -20 -20 -20 -20 -20 -20 -20 -20 -20 -20 -20 -20 -20 -20 -20 -20 -20 -20 -20 -20 -20 -20 -20 -20 -20 -20 -20 -20 -20 -20 -20 -20 -20 -20 -20 -20
-20 -20 -20 -20 -20 -20 -20 -20 -20 -20 -20 -20 -20 -20 -20 -20 -20 -20 -20 -20 -20 -20 -20 -20 -20 -20 -20 -20 -20 -20 -20 -20 -20 -5 -2 2 -0 3 -20 -20 -20 -20 -20 -20 -20 -20 -20 -20 -20 -20 -20 -20 -20 -20

GFSWCAN_prec_radar_201.txt.gz
Reflectivity
6 -15 -8 -16 2 3 -11 3 -4 -8 -20 -20 -20 -20 -20 -20 -20 3 -20 -20 11 9 -20 -20 -20 -6 -15 4 14 -10 -11 -11 -18 -4 21 -6 5 -4 -7 -20 -20 -20 -20 -20 -20 -20 -20 -20 -12 -1 -20 -20 -20 -20
-7 -6 3 -17 -20 -2 2 -1 -8 -20 -17 7 -9 -20 5 -20 0 -17 2 -20 4 19 8 -18 -16 -16 -9 -12 22 23 -3 11 10 -18 8 21 24 19 -18 11 -20 -20 -20 -20 -20 -20 -20 -20 -20 -19 -14 -20 -20 -20
-17 -7 -20 -20 -20 -20 -20 -20 -6 -17 -20 -20 1 -15 -20 -20 4 17 6 -20 -15 15 -15 -20 -20 -20 -20 -20 12 10 -5 -20 8 -20 -14 16 14 3 10 5 11 4 2 -6 -17 -20 -20 -20 -20 -20 2 1 -20 -20
-9 -20 -13 -9 1 -8 -19 -20 -20 -18 -20 -20 -20 -7 -7 3 6 18 16 -20 9 0 20 5 -20 -20 -20 -20 -20 -20 -6 -20 21 -15 5 2 10 3 -17 -20 7 20 9 23 2 -19 -20 -20 -20 -20 -3 10 -1 -20
2 -13 -19 -20 -20 -20 -20 -14 -17 -20 -20 -17 -1 2 18 16 18 21 -12 -20 -10 12 -9 -20 -20 -20 -20 -20 -20 -20 -18 12 17 15 14 0 -1 10 -11 -3 -20 14 10 16 6 -10 6 -14 -16 -20 -20 -19 -20 -20
4 -20 -20 -20 -20 -20 6 3 -1 -1 -2 4 13 6 13 15 18 17 7 -20 -20 -20 21 20 -13 -20 -20 -20 -20 -20 -20 7 1 26 29 10 -20 -7 8 -2 -20 -6 15 -6 1 17 29 2 -10 -9 -20 -20 -20 -20
-10 2 -17 -19 8 10 5 9 10 10 8 7 0 -16 -7 -1 15 13 -2 -20 -20 25 26 17 -20 -20 -20 -20 -20 -20 -20 -20 9 2 4 -15 8 24 6 4 -20 -20 -20 -18 -20 26 -6 -20 -20 -14 -5 -20 -20 -20
-20 -20 -11 7 14 5 10 -9 -20 -20 -7 -10 -9 8 -6 -4 -9 7 -20 -20 14 22 29 27 17 -20 -20 -20 -17 -5 1 6 5 -15 -20 -20 -20 6 9 -6 -20 -20 -20 -20 -12 15 27 17 -19 1 1 -4 -20 -20
-20 -6 0 18 -0 -17 -20 -16 8 -3 2 -1 9 6 -20 -20 -20 -20 -20 -5 8 27 19 20 -3 -20 -20 -16 -11 -12 4 19 18 5 -15 10 13 15 -11 -20 -20 -20 -20 -20 6 8 19 6 4 5 12 3 -10 -3
-9 -2 15 17 -20 -6 6 8 -7 5 17 7 -20 -20 -20 -20 -20 -20 -19 -20 -20 8 13 -16 15 5 20 14 21 20 22 20 17 6 -12 6 3 -20 -20 -20 -20 -20 -20 -20 -11 -3 14 -6 18 23 -7 6 -12 29
-1 10 15 6 -1 -2 -4 -20 -13 6 10 -20 -20 -20 -20 -20 -17 3 7 -12 -5 6 -0 5 26 21 8 20 10 19 17 13 19 -5 -20 -20 -20 -20 -20 -20 -20 -20 -20 -20 -20 -14 -7 -14 0 -20 -20 3 20 20
10 15 4 -20 -20 -20 -5 -5 8 22 20 12 23 -2 -20 -15 -16 2 -14 5 25 28 17 10 2 -2 -18 19 18 22 12 -19 -8 -20 -15 -20 -20 -20 -20 -20 -20 -20 -20 -20 -20 -20 -8 -16 -20 -20 -12 27 1 5
-4 -18 -20 2 16 18 17 9 17 14 23 -20 -20 -6 -20 -20 -20 -16 -4 -17 -12 -10 12 10 -12 -11 -19 10 20 -5 18 14 -19 -16 -20 -20 -20 -20 -20 -20 -20 -19 -20 -20 -20 -20 -20 -13 -7 -20 2 16 19 14
12 7 4 7 10 -16 13 -2 25 26 10 -20 -20 -20 -20 -20 -20 -20 -5 6 -19 -16 -20 -20 -20 9 -20 13 18 18 -5 -20 -6 0 -20 -20 -20 -12 -20 -19 11 15 -15 -20 -20 -20 -20 -20 -19 3 17 21 18 24
-12 -3 2 -1 -20 19 -20 19 25 18 -20 -20 -20 -20 -20 -20 -20 -18 -0 -4 -20 -20 -19 -13 -16 3 -15 12 19 -10 -18 -20 -20 -18 -17 -3 -2 -5 -3 4 20 1 -14 3 -20 -20 -20 -14 13 22 23 23 20 15
7 -11 -20 -20 -15 16 22 12 -20 -20 -12 -4 -10 -20 -20 -20 -20 -16 -16 -20 -13 0 -7 2 3 -7 13 17 1 -20 -16 -7 -3 13 12 13 15 15 8 20 22 27 27 19 -1 7 20 27 28 23 18 16 13 6
10 -17 -20 7 19 -17 -20 -20 -20 -10 -1 -19 -20 -5 16 -5 -20 -20 -14 -9 7 14 4 -7 15 11 6 15 13 9 12 4 14 14 11 16 15 15 14 19 24 27 26 28 29 29 28 26 23 20 10 17 18 19
-8 -17 -16 17 -4 -20 -20 -20 -20 -20 -19 -16 11 7 -9 -1 8 -20 -19 5 15 12 14 16 5 1 3 3 -6 10 -7 7 16 12 14 17 20 21 20 23 26 27 26 23 16 17 17 17 17 14 15 15 15 9
5 12 -18 -20 -20 -20 -20 -20 -20 -16 -20 9 8 -11 -17 -10 -11 -8 3 -1 19 15 10 8 2 -0 2 6 5 9 10 14 6 15 18 20 21 21 22 23 24 24 23 21 20 18 16 15 12 11 10 10 -6 -15
8 -9 -20 -20 -20 -20 -20 -20 -20 -20 -20 7 -6 3 -20 12 14 -1 1 2 9 5 -7 -6 -3 6 10 8 17 8 10 18 13 10 15 16 14 8 10 10 10 13 12 12 10 10 9 8 4 -2 -14 -20 -20 -20
6 -20 -20 -20 -20 -20 -20 -20 -20 -20 -8 8 5 -20 -15 -12 3 -4 1 8 6 -2 -10 11 13 12 17 17 20 20 20 9 -3 -12 -4 -4 -3 5 4 -2 0 0 0 -4 -6 -11 -20 -20 -20 -20 -20 -20 -20 -20
-20 -20 -20 -20 -20 -20 -20 -20 -20 -20 7 7 -3 -11 2 4 -13 -6 3 -10 -3 2 4 18 21 23 17 16 15 11 15 1 -6 -20 -13 -13 -16 -2 1 -10 -15 -20 -20 -20 -20 -20 -20 -20 -20 -20 -20 -20 -20 -20
-20 -20 -20 -20 -20 -20 -20 -20 -20 -20 -7 5 5 -8 0 4 -12 -9 -20 -14 7 15 11 13 15 -4 -18 -2 -13 -16 -6 -0 -13 -19 -20 -20 -20 -16 -19 -20 -20 -20 -20 -20 -20 -20 -20 -20 -20 -20 -20 -20 -20 -20
-20 -20 -20 -20 -20 -20 -20 -20 -20 -20 -20 -10 3 -5 -11 -16 -17 -20 -20 -18 10 17 12 8 11 -9 -9 -15 -20 -20 -20 -20 -20 -20 -20 -20 -20 -20 -20 -20 -20 -20 -20 -20 -20 -20 -20 -20 -20 -20 -20 -20 -20 -20
-20 -20 -20 -20 -20 -20 -20 -20 -20 -20 -20 -20 -2 -3 -12 -7 -17 -20 -20 -15 -2 -5 6 7 -12 -15 -20 -20 -20 -20 -20 -20 -20 -20 -20 -20 -20 -20 -20 -20 -20 -20 -20 -20 -20 -20 -20 -20 -20 -20 -20 -20 -20 -20
-20 -20 -20 -20 -20 -20 -20 -20 -20 -20 -20 -20 -20 -20 -7 -20 -20 -20 -20 -15 0 3 2 -2 -18 -18 -15 -19 -20 -20 -20 -20 -20 -20 -20 -20 -20 -20 -20 -20 -20 -20 -20 -20 -20 -20 -20 -20 -20 -20 -20 -20 -20 -20
-20 -20 -20 -20 -20 -20 -20 -20 -20 -20 -20 -20 -20 -20 -20 -20 -20 -20 -20 -20 -20 -18 -20 -20 -20 -20 -20 -20 -20 -20 -20 -20 -20 -20 -20 -20 -20 -20 -20 -20 -20 -20 -20 -20 -20 -20 -20 -20 -20 -20 -20 -20 -20 -20
-20 -20 -20 -20 -20 -20 -20 -20 -20 -20 -20 -20 -20 -20 -20 -20 -20 -20 -20 -20 -20 -20 -20 -20 -20 -20 -20 -20 -20 -20 -20 -20 -20 -20 -20 -20 -20 -20 -20 -20 -20 -17 -20 -20 -20 -20 -20 -20 -20 -20 -20 -20 -20 -20
-20 -20 -20 -20 -20 -20 -20 -20 -20 -20 -20 -20 -20 -20 -20 -20 -20 -20 -20 -20 -20 -20 -20 -20 -20 -20 -20 -20 -20 -20 -20 -20 -20 -20 -20 -20 -20 -20 -20 -20 -20 -20 -20 -20 -19 -11 -17 -14 -20 -20 -20 -20 -20 -20
-20 -20 -20 -20 -20 -20 -20 -20 -20 -20 -20 -20 -20 -18 -20 -20 -20 -20 -20 -20 -20 -20 -20 -20 -20 -20 -20 -20 -20 -20 -20 -20 -20 -20 -20 -20 -20 -20 -20 -20 -20 -20 -20 -20 -20 -20 -15 -20 -20 -20 -20 -20 -20 -20
-20 -20 -20 -20 -20 -20 -20 -20 -20 -20 -20 -20 -20 -20 -20 -20 -20 -20 -20 -20 -20 -20 -20 -20 -20 -20 -20 -20 -20 -20 -20 -20 -20 -20 -20 -20 -20 -20 -20 -20 -20 -20 -20 -20 -20 -20 -20 -20 -20 -20 -20 -20 -20 -20
-20 -20 -20 -20 -20 -20 -20 -20 -20 -20 -20 -20 -20 -20 -20 -20 -20 -20 -20 -20 -20 -20 -20 -20 -20 -20 -20 -20 -20 -20 -20 -20 -20 -20 -20 -20 -20 -20 -20 -20 -20 -20 -20 -20 -20 -20 -20 -20 -20 -20 -20 -20 -20 -20
-20 -20 -20 -20 -20 -20 -20 -20 -20 -20 -20 -20 -20 -20 -20 -20 -20 -20 -20 -20 -20 -20 -20 -20 -20 -20 -20 -20 -20 -20 -20 -20 -20 -6 -3 1 2 1 -20 -20 -20 -20 -20 -20 -20 -20 -20 -20 -20 -20 -20 -20 -20 -20

GFSWCAN_prec_radar_207.txt.gz
Reflectivity
-20 -20 -20 -20 -20 -20 -20 -20 -20 -20 -20 -20 -20 -20 -20 -20 -20 9 -13 -20 7 8 -10 -20 -14 -20 -10 1 3 -20 -4 -20 9 -4 14 0 16 1 -9 8 6 14 14 7 14 15 9 -20 -20 -20 -20 -20 -20 -8
-12 0 -20 -18 -2 -19 -20 9 4 11 -7 -2 7 -20 -20 -12 7 16 9 -20 1 13 -5 -20 -20 -20 -20 -20 -20 -20 -8 -9 7 9 -20 -20 -20 -19 -20 -20 -19 -1 8 10 15 8 13 28 4 -20 -20 -20 -20 -20
12 -1 -6 -17 -19 10 6 -18 -1 11 -17 -20 -15 11 11 11 5 13 -15 -20 -17 6 -14 -20 -20 -20 -20 -20 -20 1 -20 -20 -4 -20 3 8 13 9 -5 -20 -15 -20 -20 -11 5 -12 -19 12 19 14 6 -19 -20 -20
5 5 -4 7 4 7 4 10 -4 -20 6 19 -1 14 15 16 20 16 10 -20 0 -5 13 -14 -20 -20 -20 -20 -20 -20 -20 -20 -20 2 14 17 12 7 6 -9 4 -7 1 -4 2 -12 -20 -6 21 -14 -2 2 1 0
-10 7 10 9 9 3 5 -17 -20 12 17 1 23 -20 -20 -20 1 11 -17 -20 -20 11 -20 -20 -20 -20 -20 -20 -20 -20 -20 -20 -10 7 14 12 -14 1 -4 -1 -1 -18 -20 -4 -20 -2 16 5 11 21 17 -19 -20 -18
-19 -5 7 -19 -11 7 -20 -20 -6 19 13 -20 -20 -20 11 -1 8 -20 5 -20 -20 -19 17 2 -20 -20 -20 -20 -20 -20 -20 -20 -20 -17 1 3 -20 12 9 -4 -20 -20 -20 -20 -20 -15 15 11 7 15 15 -6 27 3
13 -10 -10 11 17 -4 -20 -20 13 -18 14 -20 -2 8 3 -12 9 11 -20 -20 -20 -10 11 19 -2 -20 -20 -20 -20 -20 -20 -17 -7 15 16 -5 -20 11 9 10 -20 -20 -20 -20 -20 -18 5 7 8 15 19 -4 18 25
-4 -1 4 6 -3 15 -20 3 18 16 -20 -17 -20 -20 -20 -20 -20 -20 -20 -20 -6 20 6 6 -14 -20 -4 -18 -20 1 4 3 9 -5 -20 -10 -7 5 17 -13 -20 -20 -20 -20 -20 -20 -20 -17 -14 -13 1 7 14 18
-12 -1 -2 -3 16 -20 -20 18 13 14 -20 -4 14 -12 -20 -20 -20 -20 -20 -20 -20 15 13 -20 -20 -15 -20 -15 -18 -12 3 7 -16 -14 5 8 -5 6 -3 -19 -20 -20 -20 -20 -20 -20 -20 -20 -20 -20 -6 13 7 12
17 -8 -15 16 -4 -2 18 14 -20 -19 19 16 -20 -20 -20 -20 -20 -20 -20 -20 -20 -4 20 16 -4 0 12 -9 -8 -0 -1 -19 -20 -20 -20 8 -14 -20 10 10 -18 -20 -20 -20 -20 -20 -20 -20 -20 -20 -20 4 25 21
-7 -14 -18 -17 6 -7 -16 7 17 17 7 -20 -20 -20 -20 -20 -20 -20 -20 -20 -19 -8 2 18 13 3 -11 -9 -20 -16 -14 -20 1 -20 -20 -19 -20 -10 -14 -14 -13 -20 -20 -20 -20 -20 -20 -20 -20 -20 -20 7 17 16
-20 -15 10 12 12 4 -3 -9 -4 -17 14 0 20 13 13 -20 -19 -20 -20 -14 -17 20 17 1 -19 -20 -20 -20 10 -20 9 -7 -18 -19 -0 -20 -20 -9 -18 -20 -17 -7 -20 -20 -20 -20 -20 -20 -20 -20 -12 5 15 -4
-0 -13 -18 -20 4 10 13 15 16 16 -13 -20 -15 -15 -20 -20 -20 -20 -20 -20 -20 -20 -20 -19 -20 -20 -20 -20 -15 -15 -3 6 4 8 -20 3 -3 -20 -20 -20 -20 -20 -20 -20 -20 -20 -20 -20 -20 -20 -17 -2 1 -11
-13 1 -4 -20 -20 -20 -20 -3 16 7 -13 20 19 -13 -20 -20 -20 -20 -20 -20 -20 -20 -20 -20 -20 -20 -20 -19 -20 5 -19 17 19 13 3 -20 -20 -20 -20 -20 -20 -20 -20 -20 -20 -20 -20 -20 -20 -20 -20 -11 -16 -14
4 -20 -20 -20 -17 -7 9 15 10 14 17 8 -20 -20 -20 -20 -20 -20 -20 -20 -20 -20 -20 -20 -20 -19 -19 0 3 11 19 15 1 -20 -20 -20 -20 -13 -16 -16 -18 -5 14 14 1 -12 -19 -20 -20 -20 -20 -18 4 19
-2 -20 -20 -20 -0 9 3 -5 -11 -17 -20 -20 -20 -20 -20 -20 -20 -20 -20 -20 -20 -20 -20 -16 -16 -11 2 13 10 3 -13 -17 -20 -3 -4 -19 -20 7 13 11 13 13 19 12 25 22 13 -18 -20 -17 -13 6 21 23
-3 -20 -20 2 23 -20 -5 -20 -20 -20 -20 -20 -20 -20 -20 4 11 -15 -20 -20 -20 -3 -20 -17 -18 -3 -6 -18 -20 -20 -11 3 1 -2 -2 2 1 5 15 18 16 21 21 20 21 23 22 18 2 4 20 23 15 11
-8 -20 -1 21 -6 -20 -20 -20 -20 -20 -20 -20 -15 -17 16 17 -10 -18 -16 -14 1 1 3 8 3 -19 -20 -20 -20 -13 -8 11 7 10 12 12 11 16 17 23 24 22 19 17 14 14 11 3 14 19 18 19 19 13
4 -3 13 2 -20 -20 -20 -20 -20 -20 -20 -20 -20 4 1 10 2 1 -16 -18 10 9 2 -20 -20 -20 -20 -3 -7 -8 12 9 13 12 16 9 13 16 17 15 16 19 20 17 11 12 10 9 7 5 -2 6 2 -2
-12 -7 5 -2 -20 -20 -20 -20 -20 -20 -20 -20 -20 -19 -11 8 -19 -20 -20 -20 -13 -9 -20 -20 -15 -8 2 -14 3 5 16 15 10 3 -5 -0 -7 1 2 6 1 6 4 10 13 15 14 11 10 10 8 -1 -1 2
-20 -20 4 -14 -20 -20 -20 -20 -20 -20 -20 -20 -20 -20 -16 -20 -20 -20 -15 -6 -1 -20 -20 -8 3 -13 -2 7 13 17 16 14 -4 2 -12 -8 -10 -13 -9 -9 -20 -15 -6 -13 -10 -20 -20 -18 -20 -20 -20 -18 -20 -20
-13 -6 -20 -20 -20 -20 -20 -20 -20 -20 -20 -20 -20 -20 -20 -6 -10 -12 10 2 -20 -17 -20 -20 -20 4 8 14 17 12 -1 -8 -20 -17 -20 -20 -20 -20 -20 -20 -20 -20 -20 -20 -20 -20 -20 -20 -20 -20 -20 -20 -20 -20
-20 -20 -20 -20 -20 -20 -20 -20 -20 -20 -20 -20 -20 -20 -20 -3 -6 -16 -14 -20 -20 -15 -0 -6 -9 9 8 8 7 -7 -19 -20 -20 -20 -20 -20 -20 -20 -20 -20 -20 -20 -20 -20 -20 -20 -20 -20 -20 -20 -20 -20 -20 -20
-20 -20 -20 -20 -20 -20 -20 -20 -20 -20 -20 -20 -20 -20 -20 3 -4 -20 -20 -20 -20 -20 -10 5 6 6 2 -19 -20 -20 -20 -20 -20 -20 -20 -20 -20 -20 -20 -20 -20 -20 -20 -20 -20 -20 -20 -20 -20 -20 -20 -20 -20 -20
-20 -20 -20 -20 -20 -20 -20 -20 -20 -20 -20 -20 -20 -20 -20 -20 -20 -11 -20 -20 -20 -20 -20 -9 4 3 -4 -13 -20 -20 -20 -20 -20 -20 -20 -20 -20 -20 -20 -20 -20 -20 -20 -20 -20 -20 -20 -20 -20 -20 -20 -20 -20 -20
-20 -20 -20 -20 -20 -20 -20 -20 -20 -20 -20 -20 -20 -20 -20 -20 -20 -20 -20 -20 -20 -20 -20 -20 -20 -19 -20 -20 -20 -20 -20 -20 -20 -20 -20 -20 -20 -20 -20 -20 -20 -20 -20 -20 -20 -20 -20 -20 -20 -20 -20 -20 -10 -20
-20 -20 -20 -20 -20 -20 -20 -20 -20 -20 -20 -20 -20 -20 -20 -20 -20 -20 -20 -20 -20 -20 -20 -20 -20 -20 -20 -20 -20 -20 -20 -20 -20 -20 -20 -20 -20 -20 -20 -20 -20 -20 -20 -20 -20 -20 -20 -20 -20 -20 -20 -20 -20 -20
-20 -20 -20 -20 -20 -20 -20 -20 -20 -20 -20 -20 -20 -20 -20 -20 -20 -20 -20 -20 -20 -20 -20 -20 -20 -20 -20 -20 -20 -20 -20 -20 -20 -20 -20 -20 -20 -20 -20 -20 -20 -14 -20 -20 -20 -20 -20 -20 -20 -20 -20 -20 -20 -20
-20 -20 -20 -20 -20 -20 -20 -20 -20 -20 -20 -20 -20 -20 -20 -20 -20 -20 -20 -20 -20 -20 -20 -20 -20 -20 -20 -20 -20 -20 -20 -20 -20 -20 -20 -20 -20 -20 -20 -20 -20 -20 -20 -20 -20 -20 -17 -20 -20 -20 -20 -20 -20 -20
-20 -20 -20 -20 -20 -20 -20 -20 -20 -20 -20 -20 -20 -20 -20 -20 -20 -20 -20 -20 -20 -20 -20 -20 -20 -20 -20 -20 -20 -20 -20 -20 -20 -20 -20 -20 -20 -20 -20 -20 -20 -20 -20 -20 -20 -20 -20 -20 -20 -20 -20 -20 -20 -20
-20 -20 -20 -20 -20 -20 -20 -20 -20 -20 -20 -20 -20 -20 -20 -20 -20 -20 -20 -20 -20 -20 -20 -20 -20 -20 -20 -20 -20 -20 -20 -20 -20 -20 -20 -20 -20 -20 -20 -20 -20 -20 -20 -20 -20 -20 -20 -20 -20 -20 -20 -20 -20 -20
-20 -20 -20 -20 -20 -20 -20 -20 -20 -20 -20 -20 -20 -20 -20 -20 -20 -20 -20 -20 -20 -20 -20 -20 -20 -20 -20 -20 -20 -20 -5 -20 -20 -20 -20 -20 -20 -20 -20 -20 -20 -20 -20 -20 -20 -20 -20 -20 -20 -20 -20 -20 -20 -20
-20 -20 -20 -20 -20 -20 -20 -20 -20 -20 -20 -20 -20 -20 -20 -20 -20 -20 -20 -20 -20 -20 -20 -20 -20 -20 -20 -20 -20 -20 -20 -20 -20 -8 -1 2 3 2 -20 -20 -20 -20 -20 -20 -20 -20 -20 -20 -20 -20 -20 -20 -20 -20

GFSWCAN_prec_radar_210.txt.gz
Reflectivity
-3 -4 14 6 -20 -6 6 -20 5 10 9 -9 -4 8 6 -20 -20 13 -5 -20 -1 9 5 -20 -20 -20 -18 -16 -20 -20 2 -20 -20 9 8 4 1 7 12 -20 -17 -2 -7 -20 -20 -5 -20 -20 12 14 15 6 -20 -20
12 12 7 -2 10 -19 6 11 9 -2 -20 5 -20 -20 -18 0 1 13 3 -20 -19 -12 -1 -14 -15 -20 -20 -20 -20 -15 1 -20 -6 -20 -20 -20 5 -0 -19 -20 -20 -18 -20 5 7 6 -20 -14 19 -4 1 12 3 9
7 13 9 11 7 12 5 -14 8 10 -12 -20 -5 17 -16 16 19 21 -14 -20 -19 -4 -18 -20 -20 -20 -20 -20 -20 10 -17 -20 -20 -20 -7 4 7 4 10 -4 -17 -20 -20 -20 -15 -20 -20 -20 -7 8 23 7 -0 9
-2 9 11 12 12 11 5 -20 -20 10 -20 3 18 -10 7 -18 -20 -13 -20 -20 -3 15 11 -19 -20 -20 -20 -20 -20 -20 -20 -20 -18 -18 2 15 14 5 6 -9 -4 -16 -20 -20 -20 -20 -20 -20 -20 -20 14 17 9 15
-15 -20 5 -15 -17 -18 -3 3 -8 -20 -20 12 17 -20 -20 -20 6 19 -20 -20 -20 14 -7 -11 -20 -20 -20 -20 -20 -20 -20 -20 -20 -8 10 12 -16 3 -14 -0 1 -20 -20 -15 -20 -20 -20 -20 -20 -20 -7 -16 -20 6
-2 11 10 14 -11 13 -12 18 16 -20 -20 15 -1 -13 -20 9 12 -20 3 -20 -20 -20 22 -12 -20 -20 -20 -20 -20 -20 -4 13 1 15 9 -12 -20 7 14 -5 -18 -8 -4 -4 -1 -17 -20 -20 -20 -20 -20 -20 -20 -20
1 -2 -6 -2 1 14 19 -12 -13 -20 14 16 16 -20 -20 -14 8 11 -4 -20 -20 -12 17 19 2 -20 -20 -20 -20 -5 -9 4 12 14 7 -12 -16 21 21 10 -16 3 11 8 11 7 -2 -20 -20 -20 -20 -20 -20 -20
3 10 -2 -15 -1 -4 -4 8 -20 7 17 5 -13 -20 -12 -20 1 -18 -20 -20 -20 9 1 -9 -20 -20 3 -19 -20 -20 -20 -20 -4 1 0 -10 -5 16 16 -15 -8 -3 12 -11 -20 7 5 -16 -20 -20 -20 -20 -20 -20
-17 -19 -11 -2 -8 -10 1 -20 -5 18 -12 4 -8 -20 -20 -20 -20 -20 -20 -20 -20 21 16 -3 -13 -8 -20 -20 -20 -20 -14 -4 -20 0 -15 1 -17 6 11 16 -6 -12 19 9 -20 -20 -20 -20 -20 -20 -20 -20 -20 -20
-7 -7 -11 -9 -6 -10 -5 -8 6 15 17 8 -20 -20 -20 -20 -20 -20 -20 -20 -20 -3 16 9 21 12 -19 -20 -16 -18 -20 -17 -20 -20 -18 -6 -18 -19 -1 -5 -20 -20 -16 16 14 -20 -20 -20 -20 -20 -20 -20 -20 -20
-7 -6 -19 -20 -12 10 17 1 -5 3 -3 -20 -20 -20 -20 -20 -20 -20 -20 -20 -20 -20 -19 20 -2 -10 -20 -20 -20 -20 -20 -20 -3 -20 -20 -20 8 -13 -20 -20 -20 -20 -20 -20 -9 7 -20 -20 -20 -20 -20 -20 -20 -20
-14 -13 -8 -19 -11 -11 13 18 20 18 3 13 17 2 -18 -19 -20 -20 -20 -20 -20 -1 15 -15 -20 -20 -20 -20 -20 -20 -3 -17 -19 -20 1 4 12 -12 -20 -20 -20 -20 -20 -20 -20 -20 -10 -19 -20 -20 -20 -20 -20 -20
-7 -18 -20 1 -18 -20 -19 -20 -20 16 -20 -20 -20 2 -0 -18 -20 -20 -20 -20 -20 -20 -20 -20 -20 -20 -20 -20 -20 -20 -20 -13 12 28 22 9 -20 -20 -20 -20 -20 -20 -20 -20 -20 -20 -20 -20 -20 -20 -20 -20 -20 -8
-20 -20 -18 -20 4 3 4 -20 15 22 -20 3 -17 -18 -20 -20 -20 -20 -20 -20 -20 -20 -20 -20 -20 -20 -20 -20 -20 -7 -18 14 10 8 -8 -20 -20 -19 -20 -20 -11 9 6 1 3 -10 -20 -20 -20 -20 -20 -20 -20 -19
-3 8 5 -8 -16 -20 -19 8 -20 2 -6 -6 -10 -20 -20 -20 -20 -20 -20 -20 -5 -1 -20 -20 -20 -20 -20 -16 -19 -3 5 -2 -11 -16 -1 -16 -15 1 9 9 10 2 8 12 25 7 -20 -20 -20 -20 -20 -20 -20 -4
18 -2 -20 -20 -19 7 -15 -12 -11 -20 -20 -20 -20 -20 -20 -20 -20 -20 -20 -19 -20 -20 -20 -17 -20 -16 -20 -4 10 -16 -20 -20 -9 -5 5 -4 -7 9 12 12 11 14 15 16 23 25 21 -5 -20 -9 -8 -11 0 5
-20 -20 -20 -5 23 -20 -20 -20 -20 -20 -20 -20 -20 -20 -20 -12 7 -18 -20 -3 -7 -19 -20 -19 -15 -1 -7 -1 -20 -20 -20 2 -8 -1 9 13 17 19 16 17 15 16 15 19 25 25 26 27 26 18 9 15 10 6
-20 -20 -16 19 -7 -20 -20 -20 -20 -20 -20 -20 -20 -20 13 1 -11 -17 -20 -17 1 -1 3 7 -1 -15 -20 -20 -20 -20 -2 -20 10 8 11 7 1 13 15 15 15 13 19 20 21 18 20 20 13 14 13 12 12 13
-9 -2 4 -20 -20 -20 -20 -20 -20 -20 -20 -20 -20 -15 9 4 -11 -3 -20 -20 1 -9 -6 -20 -20 -20 -20 -5 -18 -8 -12 -4 12 5 -20 -20 -7 -15 -5 -9 -16 1 8 10 13 18 18 17 21 19 20 16 12 9
13 -14 -3 2 -3 -20 -20 -20 -20 -20 -20 -20 -20 -20 -16 -4 -11 -20 -20 -20 -20 -20 -20 -20 -20 -20 -4 -9 -13 -1 -1 12 7 -2 -9 -19 -20 -17 -5 -20 -20 -4 -6 -13 -10 -1 9 6 -11 1 12 7 6 6
-20 -17 -20 -20 -20 -20 -20 -20 -20 -20 -20 -20 -20 -20 -20 -4 -5 -20 -20 -20 -20 -20 -20 -20 -13 2 5 -5 5 7 9 16 7 -20 -20 -20 -20 -20 -20 -20 -20 -20 -18 -12 -5 -11 -15 -2 -0 -2 -11 -19 -20 -20
-20 -20 -20 -20 -20 -20 -20 -20 -20 -20 -20 -20 -20 -20 -20 -20 -17 -15 -4 -7 -20 -20 -12 -9 -10 -20 -0 -7 3 7 -8 -20 -20 -20 -20 -20 -20 -20 -20 -20 -20 -20 -20 -20 -20 -20 -20 -20 -20 -20 -20 -20 -20 -20
-20 -20 -20 -20 -20 -20 -20 -20 -20 -20 -20 -20 -20 -20 -20 -20 -20 -16 -9 -20 -20 -20 -20 -18 -20 -20 -20 -15 -19 -20 -20 -20 -20 -20 -20 -20 -20 -20 -20 -20 -20 -20 -20 -20 -20 -20 -20 -12 -20 -20 -20 -20 -20 -20
-20 -20 -20 -20 -20 -20 -20 -20 -20 -20 -20 -20 -20 -20 -20 -20 -20 -20 -20 -20 -20 -20 -20 -20 -20 -20 -15 -6 -1 -1 -2 -15 -20 -20 -20 -20 -20 -20 -20 -20 -20 -20 -20 -20 -20 -20 -20 -20 -20 -20 -20 -20 -20 -20
-20 -20 -20 -20 -20 -20 -20 -20 -20 -20 -20 -20 -20 -20 -20 -20 -20 -20 -20 -20 -20 -20 -20 -20 -20 -20 -15 -6 -6 -18 -20 -20 -20 -20 -20 -20 -20 -20 -20 -20 -20 -20 -20 -20 -20 -20 -20 -20 -20 -20 -20 -20 -20 -20
-20 -20 -20 -20 -20 -20 -20 -20 -20 -20 -20 -20 -20 -20 -20 -20 -20 -20 -20 -20 -20 -20 -20 -20 -20 -20 -20 -20 -20 -20 -20 -20 -20 -20 -20 -20 -20 -20 -20 -20 -20 -20 -20 -20 -20 -20 -20 -20 -20 -20 -20 -20 -10 -20
-20 -20 -20 -20 -20 -20 -20 -20 -20 -20 -20 -20 -20 -20 -20 -20 -20 -20 -20 -20 -20 -20 -20 -20 -20 -20 -20 -20 -20 -20 -20 -20 -20 -20 -20 -20 -20 -20 -20 -20 -20 -20 -20 -20 -20 -20 -20 -20 -20 -20 -20 -20 -20 -20
-20 -20 -20 -20 -20 -20 -20 -20 -20 -20 -20 -20 -20 -20 -20 -20 -20 -20 -20 -20 -20 -20 -20 -20 -20 -20 -20 -20 -20 -20 -20 -20 -20 -20 -20 -20 -20 -20 -20 -20 -20 -16 -20 -20 -20 -20 -20 -20 -20 -20 -20 -20 -20 -20
-20 -20 -20 -20 -20 -20 -20 -20 -20 -20 -20 -20 -20 -20 -20 -20 -20 -20 -20 -20 -20 -20 -20 -20 -20 -20 -20 -20 -20 -20 -20 -20 -20 -20 -20 -20 -20 -20 -20 -20 -20 -20 -20 -20 -20 -12 -18 -20 -20 -20 -20 -20 -20 -20
-20 -20 -20 -20 -20 -20 -20 -20 -20 -20 -20 -20 -20 -20 -20 -20 -20 -20 -20 -20 -20 -20 -20 -20 -20 -20 -20 -20 -20 -20 -20 -20 -20 -20 -20 -20 -20 -20 -20 -20 -20 -20 -20 -20 -20 -20 -20 -20 -20 -20 -20 -20 -20 -20
-20 -20 -20 -20 -20 -20 -20 -20 -20 -20 -20 -20 -20 -20 -20 -20 -20 -20 -20 -20 -20 -20 -20 -20 -20 -20 -20 -20 -20 -20 -20 -20 -20 -20 -20 -20 -20 -20 -20 -20 -20 -20 -20 -20 -20 -20 -20 -20 -20 -20 -20 -20 -20 -20
-20 -20 -20 -20 -20 -20 -20 -20 -20 -20 -20 -20 -20 -20 -20 -20 -20 -20 -20 -20 -20 -20 -20 -20 -20 -20 -20 -20 -20 -20 -5 -20 -20 -20 -20 -20 -20 -20 -20 -20 -20 -20 -20 -20 -20 -20 -20 -20 -20 -20 -20 -20 -20 -20
-20 -20 -20 -20 -20 -20 -20 -20 -20 -20 -20 -20 -20 -20 -20 -20 -20 -20 -20 -20 -20 -20 -20 -20 -20 -20 -20 -20 -20 -20 -20 -20 -20 -8 0 2 3 0 -20 -20 -20 -20 -20 -20 -20 -20 -20 -20 -20 -20 -20 -20 -20 -20